Detroit Metro, MI

6:41 PM EDT on May 26, 2018 (GMT -0400)
Detroit Metro Wayne County

Weather History for KDTW - October, 2011

Change the Weather History Date:

Saturday, October 22, 2011

  Actual Average Record
Temperature  
Mean Temperature 48 °F 50 °F  
Max Temperature 61 °F 59 °F 81 °F (1920)
Min Temperature 35 °F 41 °F 25 °F (1967)
Degree Days  
Heating Degree Days 17 15  
Month to date heating degree days 172 250  
Since 1 July heating degree days 278 364  
Cooling Degree Days 0 0  
Month to date cooling degree days 6 7  
Year to date cooling degree days 1060 802  
Moisture  
Dew Point 36 °F    
Average Humidity 66    
Maximum Humidity 92    
Minimum Humidity 39    
Precipitation  
Precipitation 0.00 in 0.08 in 1.98 in (1929)
Month to date precipitation 1.71 1.80  
Year to date precipitation 38.48 27.50  
Snow  
Snow 0.00 in 0.00 in T in (1987)
Month to date snowfall 0.0 0.0  
Since 1 July snowfall 0.0 0.0  
Since 1 September snowfall 0.0 0.0  
Snow Depth 0.00 in    
Sea Level Pressure  
Sea Level Pressure 30.09 in    
Wind  
Wind Speed 5 mph (SSW)    
Max Wind Speed 13 mph    
Max Gust Speed 16 mph    
Visibility 10 miles    
Events      
T = Trace of Precipitation, MM = Missing Value Source: NWS Daily Summary

Daily Weather History Graph

Daily Weather History Graph

Search for Another Location

Airport or City:

Astronomy

Oct. 22, 2011 Rise Set
Actual Time 7:53 AM EDT 6:41 PM EDT
Civil Twilight 7:25 AM EDT 7:09 PM EDT
Nautical Twilight 6:52 AM EDT 7:42 PM EDT
Astronomical Twilight 6:20 AM EDT 8:14 PM EDT
Moon 2:45 AM EDT (10/22) 4:02 PM EDT (10/22)
Length of Visible Light 11h 44m
Length of Day
10h 47m
Waning Crescent, 24% of the Moon is Illuminated
Oct 22
Waning Crescent
Oct 26
New
Nov 2
First Quarter
Nov 10
Full
Nov 18
Last Quarter

Hourly Weather History & Observations

Time (EDT) Temp. Windchill Dew Point Humidity Pressure Visibility Wind Dir Wind Speed Gust Speed Precip Events Conditions
12:53 AM 46.0 °F 43.9 °F 34.0 °F 63% 30.09 in 10.0 mi WNW 4.6 mph - N/A   Overcast
1:53 AM 45.0 °F 41.8 °F 35.1 °F 68% 30.09 in 10.0 mi WNW 5.8 mph - N/A   Overcast
2:01 AM 44.6 °F 41.4 °F 35.6 °F 71% 30.08 in 10.0 mi WNW 5.8 mph - N/A   Overcast
2:53 AM 44.1 °F 42.5 °F 35.1 °F 71% 30.09 in 10.0 mi West 3.5 mph - N/A   Overcast
3:13 AM 42.8 °F - 33.8 °F 70% 30.08 in 10.0 mi Calm Calm - N/A   Scattered Clouds
3:53 AM 42.1 °F - 34.0 °F 73% 30.09 in 10.0 mi Calm Calm - N/A   Scattered Clouds
4:53 AM 39.0 °F 36.8 °F 34.0 °F 82% 30.09 in 10.0 mi WSW 3.5 mph - N/A   Partly Cloudy
5:53 AM 37.0 °F 34.5 °F 34.0 °F 89% 30.10 in 10.0 mi South 3.5 mph - N/A   Partly Cloudy
6:53 AM 36.0 °F 33.3 °F 33.1 °F 89% 30.10 in 10.0 mi South 3.5 mph - N/A   Partly Cloudy
7:53 AM 36.0 °F 32.1 °F 33.1 °F 89% 30.12 in 10.0 mi South 4.6 mph - N/A   Partly Cloudy
8:53 AM 37.9 °F 35.5 °F 34.0 °F 86% 30.12 in 8.0 mi SSE 3.5 mph - N/A   Scattered Clouds
9:53 AM 43.0 °F 40.3 °F 37.9 °F 82% 30.11 in 10.0 mi SSW 4.6 mph - N/A   Scattered Clouds
10:53 AM 50.0 °F - 39.0 °F 66% 30.11 in 10.0 mi SSW 9.2 mph - N/A   Scattered Clouds
11:53 AM 53.1 °F - 37.9 °F 57% 30.11 in 10.0 mi SSW 6.9 mph - N/A   Mostly Cloudy
12:53 PM 55.0 °F - 37.0 °F 51% 30.09 in 10.0 mi SSW 6.9 mph - N/A   Mostly Cloudy
1:53 PM 57.0 °F - 36.0 °F 45% 30.08 in 10.0 mi SW 9.2 mph - N/A   Mostly Cloudy
2:53 PM 59.0 °F - 36.0 °F 42% 30.07 in 10.0 mi Variable 6.9 mph - N/A   Mostly Cloudy
3:53 PM 61.0 °F - 35.1 °F 38% 30.06 in 10.0 mi WSW 9.2 mph - N/A   Mostly Cloudy
4:53 PM 60.1 °F - 35.1 °F 39% 30.06 in 10.0 mi SW 9.2 mph - N/A   Mostly Cloudy
5:53 PM 57.9 °F - 35.1 °F 42% 30.06 in 10.0 mi WSW 6.9 mph - N/A   Mostly Cloudy
6:53 PM 54.0 °F - 37.0 °F 53% 30.06 in 10.0 mi South 3.5 mph - N/A   Mostly Cloudy
7:53 PM 51.1 °F - 37.9 °F 61% 30.07 in 10.0 mi South 8.1 mph - N/A   Mostly Cloudy
8:53 PM 50.0 °F - 37.0 °F 61% 30.07 in 10.0 mi South 4.6 mph - N/A   Mostly Cloudy
9:53 PM 48.0 °F - 37.0 °F 66% 30.07 in 10.0 mi Calm Calm - N/A   Scattered Clouds
10:53 PM 46.9 °F - 36.0 °F 66% 30.08 in 10.0 mi SSE 3.5 mph - N/A   Partly Cloudy
11:53 PM 44.1 °F - 37.9 °F 79% 30.07 in 10.0 mi Calm Calm - N/A   Partly Cloudy